Flag for Sweden Weather past 2 weeks in Gothenburg, Sweden

Now
30 °F

Ice fog.


Feels Like: 30 °F
Forecast: 36 / 45 °F
Wind: No wind

Location: Gothenburg / Save

Current Time: Mar 27, 2015 at 4:43:10 AM

Latest Report: Mar 27, 2015 at 3:50 AM


Visibility: 0 mi

Pressure: 29.71 "Hg

Humidity: 100%

Dew point: 30 °F

Location of GothenburgLocation

Historic Weather in Gothenburg — Graph

°F

Gothenburg temperature yesterday

Maximum temperature yesterday: 41 °F (at 12:20 PM)
Minimum temperature yesterday: 34 °F (at 12:20 AM)
Average temperature yesterday: 37 °F

Past Weeks' High & Low Weather Summary

 TemperatureHumidityPressure
High54 °F (Mar 17, 1:50 PM)100% (Mar 19, 7:20 AM)30.74 "Hg (Mar 19, 7:20 AM)
Low21 °F (Mar 22, 1:20 AM)32% (Mar 13, 3:50 PM)29.65 "Hg (Mar 23, 7:50 PM)
Average39 °F74%30.28 "Hg
* Reported Mar 12 3:20 AM — Mar 27 3:20 AM, Gothenburg, Weather by CustomWeather, © 2015

Note: Actual official high and low records may vary slightly from our data, if they occured in-between our weather recording intervals... More about our weather records

Advertising

Gothenburg weather history for previous 24 hours

 ConditionsComfort  
Time TempWeatherWind HumidityBarometerVisibility
3:20 AM
Fri, Mar 27
30 °FIce fog.2 mph100%29.71 "Hg0 mi
2:50 AM30 °FIce fog.1 mph100%29.71 "HgN/A
2:20 AM32 °FIce fog.No wind100%29.71 "HgN/A
1:50 AM32 °FPassing clouds.No wind100%29.71 "Hg5 mi
1:20 AM32 °FPassing clouds.No wind100%29.71 "HgN/A
12:50 AM34 °FFog.No wind93%29.71 "Hg1 mi
12:20 AM34 °FPartly cloudy.3 mph100%29.71 "HgN/A
11:50 PM
Thu, Mar 26
36 °FPassing clouds.2 mph93%29.71 "HgN/A
11:20 PM36 °FPassing clouds.No wind100%29.71 "HgN/A
10:50 PM34 °FFog.3 mph100%29.71 "Hg5 mi
10:20 PM34 °FOvercast.1 mph100%29.71 "Hg2 mi
9:50 PM34 °FOvercast.3 mph100%29.71 "Hg5 mi
9:20 PM34 °FFog.3 mph93%29.71 "Hg4 mi
8:50 PM34 °FPassing clouds.3 mph93%29.71 "Hg4 mi
8:20 PM36 °FLight fog.1 mph100%29.71 "Hg4 mi
7:50 PM37 °FLight fog.1 mph93%29.68 "Hg5 mi
7:20 PM37 °FFog.No wind93%29.68 "Hg5 mi
6:50 PM39 °FOvercast.No wind93%29.68 "Hg5 mi
6:20 PM39 °FOvercast.1 mph93%29.68 "Hg6 mi
5:50 PM39 °FOvercast.No wind93%29.68 "HgN/A
5:20 PM39 °FFog.2 mph93%29.65 "Hg6 mi
4:50 PM39 °FFog.5 mph93%29.65 "Hg4 mi
4:20 PM39 °FFog.8 mph93%29.65 "Hg3 mi
3:50 PM41 °FFog.9 mph93%29.65 "Hg2 mi
3:20 PM41 °FFog.7 mph93%29.65 "Hg2 mi
2:50 PM41 °FFog.10 mph93%29.65 "Hg2 mi
2:20 PM41 °FFog.12 mph93%29.65 "Hg3 mi
1:50 PM41 °FDrizzle. Overcast.7 mph93%29.65 "Hg3 mi
1:20 PM41 °FDrizzle. Mostly cloudy.8 mph93%29.65 "Hg3 mi
12:50 PM41 °FLight rain. Overcast.8 mph93%29.65 "Hg3 mi
12:20 PM41 °FDrizzle. Mostly cloudy.7 mph87%29.65 "Hg3 mi
11:50 AM39 °FDrizzle. Mostly cloudy.8 mph93%29.65 "Hg3 mi
11:20 AM39 °FLight rain. Overcast.9 mph93%29.65 "Hg3 mi
10:50 AM39 °FLight rain. Overcast.9 mph87%29.65 "Hg2 mi
10:20 AM37 °FRain. Overcast.10 mph93%29.65 "Hg2 mi
9:50 AM37 °FLight rain. Overcast.14 mph93%29.65 "Hg3 mi
9:20 AM37 °FLight rain. Overcast.13 mph93%29.68 "Hg2 mi
8:50 AM37 °FLight rain. Overcast.12 mph87%29.68 "Hg4 mi
8:20 AM37 °FLight rain. Overcast.14 mph87%29.68 "Hg3 mi
7:50 AM37 °FLight rain. Partly sunny.9 mph87%29.68 "Hg5 mi
7:20 AM37 °FOvercast.13 mph87%29.68 "HgN/A
6:50 AM37 °FRain. Overcast.15 mph81%29.68 "Hg5 mi
6:20 AM37 °FDrizzle. Broken clouds.8 mph75%29.71 "HgN/A
5:50 AM37 °FPartly cloudy.18 mph75%29.68 "HgN/A
5:20 AM36 °FDrizzle. Mostly cloudy.21 mph81%29.68 "HgN/A
4:50 AM36 °FLight rain. Mostly cloudy.21 mph75%29.68 "HgN/A
4:20 AM36 °FDrizzle. Overcast.20 mph75%29.71 "HgN/A
Weather by CustomWeather, © 2015

See weather overviewHow to use our weather pages